{"data":{"norad_id":65404,"epoch":"2026-05-24T18:19:33.349152Z","epoch_age_seconds":102229,"freshness":"FRESH","line1":"1 65404U 25192A   26144.76358043  .00035619  00000+0  10604-2 0  9997","line2":"2 65404  53.1583 248.8004 0000871  87.9334 272.1768 15.34397657 40896","mean_motion":15.34397657,"eccentricity":8.71e-5,"inclination_deg":53.1583,"raan_deg":248.8004,"arg_perigee_deg":87.9334,"mean_anomaly_deg":272.1768,"bstar":0.0010604,"rev_number":4089,"period_min":93.847901385319,"perigee_km":462.11436631425,"apogee_km":463.30604189721,"semimajor_km":6840.8472041057,"source":"CELESTRAK","updated_at":"2026-05-25T13:38:20.799160Z"}}